Location: ?
(35.4064°N, 139.3593°E)
Time: 15:45:22
(UTC+00:00)

ACS3 Solar Sail - Pass Details

Date: 28 June 2024
Orbit: 993 x 1023 km, 97.4° (Epoch: 19 July)

Event Time Altitude Azimuth Distance (km) Brightness Sun altitude
Exits shadow 10:41:41 - 106° (ESE) 3,010 6.8 -7.7°
Reaches altitude 10° 10:42:45 10° 99° (E) 2,759 6.6 -7.9°
Maximum altitude 10:46:16 16° 64° (ENE) 2,353 6.6 -8.4°
Drops below altitude 10° 10:49:47 10° 29° (NNE) 2,762 7.3 -9.0°
Sets 10:53:18 0° 9° (N) 3,715 8.3 -9.6°
